CW6888 Weather Reports


Display with metric or nautical units.
time (UTC)temp
F
wind
direction
speed
MPH
gust
MPH
rain 1hr
in
rain 24hr
in
rain mn
in
humidity
%
barometer
mb
20260503071859 41 329 5.0 9.0 0.00 0.00 0.00 72 1013.1
20260503070850 41 5 4.0 12.0 0.00 0.00 0.00 73 1013.1
20260503054828 41 34 3.0 7.0 0.00 0.01 0.00 76 1013.1
20260503053842 41 360 2.0 4.0 0.00 0.01 0.00 76 1013.2
20260503052824 42 41 3.0 8.0 0.00 0.01 0.00 76 1013.2
20260503051817 42 23 2.0 4.0 0.00 0.01 0.00 75 1013.2
20260503050858 42 5 0.0 3.0 0.00 0.01 0.00 75 1013.3
20260503045823 42 360 1.0 3.0 0.00 0.01 0.00 75 1013.2
20260503044835 42 5 2.0 6.0 0.00 0.01 0.00 74 1013.1
20260503043818 43 5 1.0 5.0 0.00 0.01 0.00 73 1013.3
20260503042830 43 45 3.0 5.0 0.00 0.01 0.00 73 1013.4
20260503041837 43 5 4.0 8.0 0.00 0.01 0.00 72 1013.5
20260503040824 44 19 4.0 6.0 0.00 0.01 0.00 70 1013.7
20260503035839 44 360 2.0 5.0 0.00 0.02 0.01 69 1013.9
20260503034821 45 32 3.0 8.0 0.00 0.02 0.01 68 1014.0
20260503033841 45 28 3.0 10.0 0.00 0.02 0.01 68 1014.0
20260503032824 45 5 3.0 10.0 0.00 0.02 0.01 67 1014.1
20260503031836 46 23 3.0 7.0 0.00 0.02 0.01 67 1014.1
20260503030826 46 53 3.0 6.0 0.00 0.02 0.01 67 1014.0
20260503025840 46 26 2.0 6.0 0.00 0.02 0.01 67 1014.1
20260503024826 47 46 3.0 9.0 0.00 0.02 0.01 66 1014.1
20260503023838 47 38 4.0 8.0 0.00 0.02 0.01 66 1014.2
20260503022838 47 32 4.0 11.0 0.00 0.02 0.01 65 1014.1
20260503021821 48 17 5.0 12.0 0.00 0.02 0.01 64 1014.1
20260503020814 48 28 5.0 12.0 0.00 0.02 0.01 63 1014.2
20260503015820 48 42 4.0 17.0 0.00 0.02 0.01 63 1014.2
20260503014832 49 19 4.0 9.0 0.00 0.02 0.01 63 1014.3
20260503013824 49 360 3.0 11.0 0.00 0.02 0.01 62 1014.2
20260503012833 49 20 5.0 12.0 0.00 0.02 0.01 60 1014.1
20260503011826 50 32 6.0 14.0 0.00 0.02 0.01 58 1014.0
20260503010820 50 48 3.0 10.0 0.00 0.02 0.01 58 1013.7
20260503005829 50 25 5.0 11.0 0.00 0.02 0.01 58 1013.6
20260503004825 50 342 2.0 5.0 0.00 0.02 0.01 57 1013.3
20260503003834 50 19 2.0 4.0 0.00 0.02 0.01 56 1013.1
20260503002826 51 351 2.0 4.0 0.00 0.02 0.01 55 1013.1
20260503001838 51 5 3.0 6.0 0.00 0.02 0.01 55 1012.9
20260503000819 51 346 5.0 9.0 0.00 0.02 0.01 54 1012.8
20260502235834 52 355 3.0 7.0 0.00 0.02 0.01 53 1012.9
20260502234817 52 9 3.0 6.0 0.00 0.02 0.01 54 1012.9
20260502233840 52 350 2.0 6.0 0.00 0.02 0.01 54 1012.8
20260502232823 52 346 3.0 6.0 0.00 0.02 0.01 55 1012.7
20260502231815 52 360 3.0 9.0 0.00 0.02 0.01 55 1012.7
20260502230827 52 46 4.0 6.0 0.00 0.02 0.01 54 1012.5
20260502225832 52 9 3.0 7.0 0.00 0.02 0.01 54 1012.5
20260502224825 53 9 3.0 6.0 0.00 0.02 0.01 53 1012.5
20260502223816 53 28 5.0 12.0 0.00 0.02 0.01 51 1012.5
20260502222850 53 344 4.0 10.0 0.00 0.02 0.01 50 1012.4
20260502221826 53 28 4.0 8.0 0.00 0.02 0.01 51 1012.5
20260502220844 53 46 4.0 12.0 0.00 0.02 0.01 49 1012.5
20260502215832 54 189 3.0 8.0 0.00 0.02 0.01 50 1012.5
20260502214828 54 180 3.0 14.0 0.00 0.02 0.01 49 1012.5
20260502213820 55 265 6.0 10.0 0.00 0.02 0.01 48 1012.4
20260502212833 55 294 3.0 11.0 0.00 0.02 0.01 51 1012.3
20260502211817 55 63 4.0 9.0 0.00 0.02 0.01 48 1012.3
20260502210843 55 360 3.0 10.0 0.00 0.02 0.01 50 1012.1
20260502205819 55 5 4.0 13.0 0.00 0.02 0.01 52 1012.0
20260502204829 55 325 4.0 11.0 0.00 0.02 0.01 49 1011.9
20260502203824 55 5 6.0 17.0 0.00 0.02 0.01 50 1012.0
20260502202818 55 20 5.0 12.0 0.00 0.02 0.01 53 1012.1
20260502201850 55 40 6.0 12.0 0.00 0.02 0.01 51 1012.0
20260502200823 55 345 5.0 11.0 0.00 0.02 0.01 52 1012.1
20260502195900 55 36 7.0 13.0 0.00 0.02 0.01 52 1012.2
20260502194821 56 38 7.0 14.0 0.00 0.02 0.01 47 1012.3
20260502193832 56 53 6.0 14.0 0.00 0.02 0.01 49 1012.4
20260502192854 56 23 5.0 10.0 0.00 0.02 0.01 52 1012.6
20260502191816 55 360 6.0 13.0 0.00 0.02 0.01 49 1012.8
20260502190829 56 20 7.0 16.0 0.00 0.02 0.01 47 1012.9
20260502185814 56 42 3.0 7.0 0.00 0.02 0.01 48 1013.0
20260502184827 55 73 5.0 11.0 0.00 0.02 0.01 49 1013.2
20260502183821 55 360 6.0 11.0 0.00 0.02 0.01 51 1013.3
20260502181847 54 9 8.0 14.0 0.00 0.02 0.01 49 1013.6
20260502180818 56 62 6.0 12.0 0.00 0.02 0.01 50 1013.7
20260502163826 53 360 5.0 10.0 0.00 0.02 0.01 59 1014.1
20260502162822 53 42 6.0 15.0 0.00 0.02 0.01 56 1014.3
20260502161834 52 17 9.0 19.0 0.00 0.02 0.01 60 1014.3
20260502160818 51 41 5.0 13.0 0.00 0.02 0.01 60 1014.3
20260502151841 50 13 4.0 14.0 0.00 0.02 0.01 65 1014.6
20260502150852 49 38 4.0 8.0 0.00 0.02 0.01 68 1014.7
20260502122842 45 14 6.0 12.0 0.00 0.02 0.01 79 1014.4
20260502121813 45 18 7.0 15.0 0.00 0.02 0.01 80 1014.3
20260502120827 44 30 7.0 12.0 0.00 0.02 0.01 81 1014.3
20260502115829 44 54 8.0 14.0 0.00 0.02 0.01 82 1014.4
20260502114822 44 44 6.0 13.0 0.00 0.02 0.01 82 1014.4
20260502113816 44 5 7.0 14.0 0.00 0.02 0.01 82 1014.4
20260502112828 44 342 4.0 16.0 0.00 0.02 0.01 81 1014.3
20260502111820 44 35 6.0 12.0 0.00 0.02 0.01 81 1014.1
20260502110835 44 24 9.0 14.0 0.00 0.02 0.01 81 1013.9
20260502105821 45 9 7.0 12.0 0.00 0.02 0.01 80 1013.9
20260502104833 45 38 5.0 9.0 0.00 0.02 0.01 80 1013.9
20260502103816 45 32 5.0 9.0 0.00 0.02 0.01 79 1013.8
20260502102828 45 37 4.0 10.0 0.00 0.02 0.01 79 1013.5
20260502101818 45 26 4.0 10.0 0.00 0.02 0.01 79 1013.7
20260502100826 45 336 5.0 11.0 0.00 0.02 0.01 79 1013.6
20260502090826 46 53 3.0 10.0 0.00 0.02 0.01 77 1013.3